User: anonymous   Login
Location: Unspecified
(0.0000°N, 0.0000°E)
Time: 06:19:13
(UTC+00:00)
Language:

SAUDISAT 3 - Orbit

View from above orbital plane
View from above orbital plane
View from above satellite
View from above satellite

Ground track
Ground track

The orbit data is extracted from the following two-line orbital elements,

1 31118U 07012B   18116.72565701  .00000024  00000-0  11995-4 0  9999
2 31118  97.7629  98.9584 0015279 351.0694   9.0233 14.69096307591042
Epoch (UTC): 26 April 2018 17:24:56
Eccentricity: 0.0015279
inclination: 97.7629°
perigee height: 653 km
apogee height: 675 km
right ascension of ascending node: 98.9584°
argument of perigee: 351.0694°
revolutions per day: 14.69096307
mean anomaly at epoch: 9.0233°
orbit number at epoch: 59104

The dashed part of the orbit path shows where the satellite is in the earth's shadow,  

DLR